Sugar Land, TX

11:30 AM CST on January 17, 2017 (GMT -0600)
Sugar Land Municipal-Hull

Weather History for KSGR - November, 2013

Change the Weather History Date:

Sunday, November 17, 2013

  Actual Average Record
Temperature  
Mean Temperature 76 °F -  
Max Temperature 84 °F 71 °F 85 °F (1948)
Min Temperature 69 °F 51 °F 32 °F (1996)
Cooling Degree Days 12    
Growing Degree Days 26 (Base 50)    
Moisture  
Dew Point 72 °F    
Average Humidity 87    
Maximum Humidity 100    
Minimum Humidity 65    
Precipitation  
Precipitation 0.00 in - - ()
Sea Level Pressure  
Sea Level Pressure 29.88 in    
Wind  
Wind Speed 8 mph (SSW)    
Max Wind Speed 20 mph    
Max Gust Speed 25 mph    
Visibility 7 miles    
Events Fog    
Averages and records for this station are not official NWS values.
T = Trace of Precipitation, MM = Missing Value Source: NWS Daily Summary

Daily Weather History Graph

Daily Weather History Graph

Search for Another Location

Airport or City:

Trip Planner

Search our weather history database for the weather conditions in past years. The results will help you decide how hot, cold, wet, or windy it might be!

Date:

Astronomy

Nov. 17, 2013 Rise Set
Actual Time 6:48 AM CST 5:26 PM CST
Civil Twilight 6:23 AM CST 5:51 PM CST
Nautical Twilight 5:54 AM CST 6:20 PM CST
Astronomical Twilight 5:26 AM CST 6:48 PM CST
Moon 5:43 PM CST 6:44 AM CST
Length of Visible Light 11h 27m
Length of Day
10h 37m
Full, 100% of the Moon is Illuminated
Nov 17
Full
Nov 25
Last Quarter
Dec 2
New
Dec 9
First Quarter
Dec 17
Full

Hourly Weather History & Observations

Time (CST) Temp. Heat Index Dew Point Humidity Pressure Visibility Wind Dir Wind Speed Gust Speed Precip Events Conditions
12:48 AM 75.2 °F - 73.4 °F 94% 29.82 in 10.0 mi South 13.8 mph - N/A   Mostly Cloudy
12:53 AM 75.9 °F - 73.0 °F 91% 29.82 in 10.0 mi South 11.5 mph - N/A   Mostly Cloudy
1:17 AM 75.2 °F - 73.4 °F 94% 29.83 in 10.0 mi SW 5.8 mph - N/A   Overcast
1:53 AM 77.0 °F - 73.0 °F 88% 29.83 in 10.0 mi SSW 8.1 mph - N/A   Overcast
2:02 AM 75.2 °F - 73.4 °F 94% 29.82 in 10.0 mi SSW 6.9 mph - N/A   Overcast
2:51 AM 75.2 °F - 73.4 °F 94% 29.83 in 10.0 mi SSW 4.6 mph - N/A   Overcast
2:53 AM 75.9 °F - 73.0 °F 91% 29.83 in 10.0 mi SSW 4.6 mph - N/A   Overcast
3:53 AM 75.9 °F - 73.0 °F 91% 29.83 in 10.0 mi SSW 6.9 mph - N/A   Overcast
4:53 AM 75.9 °F - 73.0 °F 91% 29.83 in 10.0 mi South 5.8 mph - N/A   Overcast
5:21 AM 75.2 °F - 73.4 °F 94% 29.83 in 9.0 mi South 6.9 mph - N/A   Scattered Clouds
5:53 AM 75.0 °F - 73.0 °F 94% 29.84 in 8.0 mi SSW 8.1 mph - N/A   Clear
6:53 AM 75.0 °F - 73.0 °F 94% 29.84 in 7.0 mi South 6.9 mph - N/A   Clear
7:53 AM 75.0 °F - 73.0 °F 94% 29.87 in 5.0 mi SSW 4.6 mph - N/A   Clear
8:17 AM 75.2 °F - 73.4 °F 94% 29.87 in 7.0 mi SSW 4.6 mph - N/A   Mostly Cloudy
8:45 AM 77.0 °F - 73.4 °F 89% 29.88 in 9.0 mi SSW 8.1 mph - N/A   Mostly Cloudy
8:53 AM 78.1 °F - 73.0 °F 84% 29.90 in 9.0 mi SSW 8.1 mph - N/A   Mostly Cloudy
9:19 AM 80.6 °F 85.4 °F 73.4 °F 79% 29.89 in 10.0 mi SW 10.4 mph - N/A   Scattered Clouds
9:53 AM 79.0 °F - 72.0 °F 79% 29.91 in 10.0 mi SW 11.5 mph - N/A   Mostly Cloudy
10:53 AM 82.0 °F 86.7 °F 72.0 °F 71% 29.90 in 10.0 mi SSW 12.7 mph 19.6 mph N/A   Partly Cloudy
11:53 AM 82.0 °F 86.3 °F 71.1 °F 69% 29.88 in 10.0 mi SW 17.3 mph 23.0 mph N/A   Partly Cloudy
12:53 PM 84.0 °F 89.6 °F 72.0 °F 67% 29.85 in 10.0 mi SSW 19.6 mph 25.3 mph N/A   Clear
1:53 PM 84.0 °F 89.0 °F 71.1 °F 65% 29.83 in 10.0 mi SSW 15.0 mph 21.9 mph N/A   Scattered Clouds
2:53 PM 82.9 °F 87.5 °F 71.1 °F 67% 29.83 in 10.0 mi SW 11.5 mph - N/A   Mostly Cloudy
3:53 PM 82.9 °F 87.0 °F 70.0 °F 65% 29.83 in 10.0 mi SSW 11.5 mph - N/A   Clear
4:53 PM 81.0 °F 84.9 °F 71.1 °F 72% 29.85 in 10.0 mi SW 6.9 mph - N/A   Clear
5:53 PM 79.0 °F - 70.0 °F 74% 29.88 in 10.0 mi SSW 6.9 mph - N/A   Scattered Clouds
6:53 PM 77.0 °F - 70.0 °F 79% 29.89 in 10.0 mi South 6.9 mph - N/A   Clear
7:53 PM 73.9 °F - 71.1 °F 91% 29.91 in 8.0 mi South 6.9 mph - N/A   Clear
8:53 PM 73.0 °F - 71.1 °F 93% 29.92 in 7.0 mi South 3.5 mph - N/A   Clear
9:53 PM 72.0 °F - 70.0 °F 93% 29.94 in 6.0 mi Calm Calm - N/A   Clear
10:16 PM 71.6 °F - 69.8 °F 94% 29.93 in 2.5 mi South 3.5 mph - N/A   Clear
10:25 PM 69.8 °F - 69.8 °F 100% 29.93 in 4.0 mi South 4.6 mph - N/A   Clear
10:53 PM 71.1 °F - 69.1 °F 93% 29.94 in 3.0 mi SSE 3.5 mph - N/A   Clear
11:13 PM 71.6 °F - 69.8 °F 94% 29.94 in 2.0 mi Calm Calm - N/A   Clear
11:20 PM 69.8 °F - 69.8 °F 100% 29.94 in 1.0 mi Calm Calm - N/A   Mist
11:30 PM 69.8 °F - 68.0 °F 94% 29.93 in 0.8 mi South 3.5 mph - N/A   Mist
11:43 PM 69.8 °F - 69.8 °F 100% 29.94 in 0.2 mi Calm Calm - N/A Fog Fog
11:50 PM 69.8 °F - 69.8 °F 100% 29.94 in 0.2 mi Calm Calm - N/A Fog Fog
11:53 PM 69.1 °F - 69.1 °F 100% 29.94 in 0.2 mi Calm Calm - N/A Fog Fog